Change the Weather History Date:

Sunday, February 10, 2013

  Actual Average Record
Temperature  
Mean Temperature 48 °F -  
Max Temperature 55 °F 49 °F 60 °F (2014)
Min Temperature 37 °F 34 °F 24 °F (2005)
Degree Days  
Heating Degree Days 17    
Moisture  
Dew Point 40 °F    
Average Humidity 76    
Maximum Humidity 93    
Minimum Humidity 54    
Precipitation  
Precipitation 0.00 in - - ()
Sea Level Pressure  
Sea Level Pressure 29.78 in    
Wind  
Wind Speed 6 mph ()    
Max Wind Speed 13 mph    
Max Gust Speed -    
Visibility 6.2 miles    
Events Thunderstorm    
Averages and records for this station are not official NWS values.
T = Trace of Precipitation, MM = Missing Value Source: Averaged Metar Reports

Daily Weather History Graph

Daily Weather History Graph

Search for Another Location

Airport or City:

Trip Planner

Search our weather history database for the weather conditions in past years. The results will help you decide how hot, cold, wet, or windy it might be!

Date:

Astronomy

Feb. 10, 2013 Rise Set
Actual Time 7:22 AM EET 5:49 PM EET
Civil Twilight 6:53 AM EET 6:18 PM EET
Nautical Twilight 6:21 AM EET 6:50 PM EET
Astronomical Twilight 5:49 AM EET 7:22 PM EET
Moon 6:59 AM EET (2/10) 6:19 PM EET (2/10)
Length of Visible Light 11h 24m
Length of Day
10h 27m
New Moon, 0% of the Moon is Illuminated
Feb 10
New Moon
Feb 17
First Quarter
Feb 25
Full
Mar 4
Last Quarter
Mar 11
New

Hourly Weather History & Observations

Time (EET) Temp. Windchill Dew Point Humidity Pressure Visibility Wind Dir Wind Speed Gust Speed Precip Events Conditions
12:50 AM 41.0 °F 37.1 °F 37.4 °F 87% 29.83 in 6.2 mi NE 5.8 mph - N/A   Partly Cloudy
1:50 AM 41.0 °F 37.1 °F 35.6 °F 81% 29.80 in 6.2 mi NE 5.8 mph - N/A   Scattered Clouds
2:50 AM 41.0 °F 35.8 °F 37.4 °F 87% 29.80 in 6.2 mi ENE 8.1 mph - N/A Thunderstorm Thunderstorm
3:50 AM 41.0 °F 35.8 °F 39.2 °F 93% 29.80 in 6.2 mi North 8.1 mph - N/A Thunderstorm Thunderstorm
4:50 AM 44.6 °F 39.7 °F 42.8 °F 93% 29.80 in 6.2 mi NNE 9.2 mph - N/A   Scattered Clouds
5:50 AM 42.8 °F 38.0 °F 39.2 °F 87% 29.77 in 6.2 mi NE 8.1 mph - N/A   Scattered Clouds
6:20 AM 42.8 °F 38.0 °F 39.2 °F 87% 29.77 in 6.2 mi ENE 8.1 mph - N/A   Scattered Clouds
6:50 AM 42.8 °F 39.3 °F 39.2 °F 87% 29.77 in 6.2 mi East 5.8 mph - N/A   Scattered Clouds
7:20 AM 42.8 °F 40.1 °F 39.2 °F 87% 29.77 in 6.2 mi East 4.6 mph - N/A   Scattered Clouds
7:50 AM 42.8 °F 39.3 °F 41.0 °F 93% 29.77 in 6.2 mi East 5.8 mph - N/A   Scattered Clouds
8:20 AM 42.8 °F - 41.0 °F 93% 29.77 in 6.2 mi Calm Calm - N/A   Scattered Clouds
8:50 AM 44.6 °F - 41.0 °F 87% 29.80 in 6.2 mi Calm Calm - N/A   Partly Cloudy
9:20 AM 44.6 °F - 41.0 °F 87% 29.80 in 6.2 mi Calm Calm - N/A   Partly Cloudy
9:50 AM 50.0 °F - 44.6 °F 82% 29.77 in 6.2 mi NE 4.6 mph - N/A   Partly Cloudy
10:20 AM 50.0 °F - 44.6 °F 82% 29.80 in 6.2 mi ENE 5.8 mph - N/A   Partly Cloudy
10:50 AM 51.8 °F - 44.6 °F 76% 29.80 in 6.2 mi ENE 4.6 mph - N/A   Scattered Clouds
11:20 AM 51.8 °F - 44.6 °F 76% 29.80 in 6.2 mi SW 4.6 mph - N/A   Scattered Clouds
11:50 AM 51.8 °F - 44.6 °F 76% 29.80 in 6.2 mi SSW 5.8 mph - N/A   Scattered Clouds
12:20 PM 51.8 °F - 44.6 °F 76% 29.80 in 6.2 mi WSW 8.1 mph - N/A   Scattered Clouds
12:50 PM 55.4 °F - 44.6 °F 67% 29.80 in 6.2 mi SW 10.4 mph - N/A   Partly Cloudy
1:20 PM 55.4 °F - 44.6 °F 67% 29.80 in 6.2 mi SW 11.5 mph - N/A   Partly Cloudy
1:50 PM 53.6 °F - 46.4 °F 77% 29.77 in 6.2 mi SW 11.5 mph - N/A   Scattered Clouds
2:20 PM 53.6 °F - 46.4 °F 77% 29.77 in 6.2 mi WSW 12.7 mph - N/A   Scattered Clouds
2:50 PM 55.4 °F - 46.4 °F 72% 29.77 in 6.2 mi WSW 9.2 mph - N/A   Scattered Clouds
3:20 PM 55.4 °F - 46.4 °F 72% 29.77 in 6.2 mi WSW 8.1 mph - N/A   Scattered Clouds
3:50 PM 55.4 °F - 39.2 °F 54% 29.77 in 6.2 mi SW 8.1 mph - N/A   Partly Cloudy
4:20 PM 55.4 °F - 39.2 °F 54% 29.77 in 6.2 mi SW 8.1 mph - N/A   Partly Cloudy
4:50 PM 53.6 °F - 39.2 °F 58% 29.77 in 6.2 mi SW 6.9 mph - N/A   Partly Cloudy
5:20 PM 53.6 °F - 39.2 °F 58% 29.77 in 6.2 mi SW 6.9 mph - N/A   Partly Cloudy
5:50 PM 51.8 °F - 37.4 °F 58% 29.74 in 6.2 mi SW 8.1 mph - N/A   Partly Cloudy
6:20 PM 50.0 °F - 37.4 °F 62% 29.77 in 6.2 mi SSW 4.6 mph - N/A   Partly Cloudy
6:50 PM 50.0 °F - 35.6 °F 58% 29.77 in - WSW 10.4 mph - N/A   Clear
7:20 PM 50.0 °F - 35.6 °F 58% 29.77 in - West 5.8 mph - N/A   Clear
7:50 PM 44.6 °F 42.2 °F 37.4 °F 76% 29.77 in - North 4.6 mph - N/A   Clear
8:20 PM 44.6 °F 42.2 °F 37.4 °F 76% 29.77 in - NE 4.6 mph - N/A   Clear
8:50 PM 44.6 °F 40.7 °F 35.6 °F 71% 29.77 in - ENE 6.9 mph - N/A   Clear
9:20 PM 44.6 °F - 35.6 °F 71% 29.77 in - Calm Calm - N/A   Clear
9:50 PM 42.8 °F 40.1 °F 35.6 °F 76% 29.80 in - NE 4.6 mph - N/A   Clear
10:20 PM 42.8 °F 40.1 °F 35.6 °F 76% 29.80 in - NNE 4.6 mph - N/A   Clear
10:50 PM 41.0 °F 38.0 °F 35.6 °F 81% 29.80 in - NE 4.6 mph - N/A   Clear
11:50 PM 37.4 °F 33.8 °F 33.8 °F 87% 29.80 in - NNE 4.6 mph - N/A   Clear